Regional Weather Roundup
Issued by NWS

Home | Current Version | Previous Version | Graphics & Text | Print | Product List | Glossary On
Versions: 1 2 3 4 5 6 7 8 9 10 11 12 13 14 15 16 17 18 19 20 21 22 23 24 25 26 27 28 29 30 31 32 33 34 35 36 37 38 39 40 41 42 43 44 45 46 47 48 49 50
000
ASUS43 KLSX 210557
RWRMO

WEATHER SUMMARY FOR MISSOURI
NATIONAL WEATHER SERVICE SPRINGFIELD MO
100 AM CDT FRI JUL 21 2017

NOTE: "FAIR" INDICATES FEW OR NO CLOUDS BELOW 12,000 FEET WITH NO
       SIGNIFICANT WEATHER AND/OR OBSTRUCTIONS TO VISIBILITY.
       CURRENT SKY AND/OR WEATHER CONDITIONS ARE NOT AVAILABLE FOR
       CHILLICOTHE AND FARMINGTON.

MOZ001>031-035>038-043-044-053-054-210700-
...NORTHERN AND WESTERN MISSOURI...

CITY           SKY/WX    TMP DP  RH WIND       PRES   REMARKS
KANSAS CTY INT CLEAR     80  74  81 S9        29.97R
6HR MIN TEMP:  80; 6HR MAX TEMP:  94;

LEE`S SUMMIT   CLEAR     83  75  77 S10       29.98R HX  90
6HR MIN TEMP:  83; 6HR MAX TEMP:  95;

ST JOSEPH      CLEAR     79  76  90 S6        29.94R
6HR MIN TEMP:  79; 6HR MAX TEMP:  92;

CHILLICOTHE      N/A     83  77  82 S5        29.96S HX  92
6HR MIN TEMP:  83; 6HR MAX TEMP:  93;


$$
MOZ066>068-077>081-088>096-101>105-210700-
...SOUTHWEST MISSOURI...

CITY           SKY/WX    TMP DP  RH WIND       PRES   REMARKS
SPRINGFIELD    CLEAR     78  72  81 S8        30.03S
6HR MIN TEMP:  78; 6HR MAX TEMP:  93;

JOPLIN         CLEAR     81  74  79 S8        30.01S
6HR MIN TEMP:  81; 6HR MAX TEMP:  94;


$$
MOZ032>034-039>042-045>050-055>058-069>072-210700-
...CENTRAL MISSOURI...

CITY           SKY/WX    TMP DP  RH WIND       PRES   REMARKS
COLUMBIA       NOT AVBL
JEFFERSON CITY CLEAR     80  76  87 CALM      29.97R
6HR MIN TEMP:  79; 6HR MAX TEMP:  97;

ROLLA          CLEAR     77  72  84 S9        30.01S
6HR MIN TEMP:  77; 6HR MAX TEMP:  91;

WARRENSBURG    PTCLDY    79  72  78 S3        29.97S

$$
MOZ051-052-059>065-210700-
...EAST CENTRAL MISSOURI...

CITY           SKY/WX    TMP DP  RH WIND       PRES   REMARKS
ST LOUIS INTL  CLEAR     90  70  51 SW7       29.98S HX  95
6HR MIN TEMP:  89; 6HR MAX TEMP:  99;


$$
MOZ072>076-082>087-097>100-106>115-210700-
...SOUTH CENTRAL AND SOUTHEAST MISSOURI...

CITY           SKY/WX    TMP DP  RH WIND       PRES   REMARKS
CAPE GIRARDEAU PTCLDY    79  74  84 CALM      30.00R
6HR MIN TEMP:  78; 6HR MAX TEMP:  88;

POPLAR BLUFF   CLEAR     81  77  88 SW5       29.99F
6HR MIN TEMP:  81; 6HR MAX TEMP:  91;

WEST PLAINS    CLEAR     80  73  79 SW6       30.06S
6HR MIN TEMP:  80; 6HR MAX TEMP:  91;


$$


USA.gov is the U.S. government's official web portal to all federal, state and local government web resources and services.